Location: Gebenbach
(49.5378°N, 11.8735°E)
Time: 03:42:02
(UTC+00:00)

CZ-4 R/B - Pass Details

Date: 29 October 2020
Orbit: 532 x 598 km, 97.7° (Epoch: 27 November)

Event Time Altitude Azimuth Distance (km) Brightness Sun altitude
Rises 19:00:26 0° 215° (SW) 2,694 5.1 -30.4°
Reaches altitude 10° 19:03:42 10° 245° (WSW) 1,798 4.5 -30.9°
Maximum altitude 19:05:23 12° 271° (W) 1,642 4.5 -31.2°
Drops below altitude 10° 19:07:05 10° 297° (WNW) 1,797 4.8 -31.5°
Sets 19:10:22 0° 328° (NNW) 2,690 5.5 -32.0°
